|
NORAD ID: 13917 Int'l Code: 1983-021B
Perigee: 960.8 km
Apogee: 1,004.9 km
Inclination: 82.9 °
Period: 104.6 minutes
Semi major axis: 7353 km
Launch date: March 24, 1983
Source: Commonwealth of Independent States (former USSR) (CIS)
Note: This is a ROCKET BODY
Two Line Element Set (TLE):
1 13917U 83021B 13138.14198331 .00000084 00000-0 69478-4 0 2714
2 13917 082.9437 274.4608 0030000 102.8477 321.4862 13.76672564514428
Source:
NASA's NSSDC Master Catalog entry for SL-8 R/B
|